HS5NMF Weather Reports


time (UTC)temp
C
wind
direction
speed
KPH
gust
KPH
rain 1hr
cm
rain 24hr
cm
rain mn
cm
humidity
%
barometer
mb
20260505032411 33 0 0.0 0.0 0.00 0.00 0.00 62 980.0
20260505031844 33 0 0.0 0.0 0.00 0.00 0.00 62 980.0
20260505031320 33 0 0.0 0.0 0.00 0.00 0.00 63 980.0
20260505030758 33 0 0.0 0.0 0.00 0.00 0.00 63 980.0
20260505030235 34 0 0.0 0.0 0.00 0.00 0.00 60 980.0
20260505025721 33 0 0.0 0.0 0.00 0.00 0.00
20260505025712 33 0 0.0 0.0 0.00 0.00 0.00 61 980.0
20260505025148 33 0 0.0 0.0 0.00 0.00 0.00 63 981.0
20260505024625 33 0 0.0 0.0 0.00 0.00 0.00 63 981.0
20260505024101 33 0 0.0 0.0 0.00 0.00 0.00 63 981.0
20260505023539 33 0 0.0 0.0 0.00 0.00 0.00 63 980.0
20260505023015 33 0 0.0 0.0 0.00 0.00 0.00 64 980.0
20260505022453 33 0 0.0 0.0 0.00 0.00 0.00 65 980.0
20260505021930 32 0 0.0 0.0 0.00 0.00 0.00 67 980.0
20260505021408 32 0 0.0 0.0 0.00 0.00 0.00 68 980.0
20260505020843 32 0 0.0 0.0 0.00 0.00 0.00 68 980.0
20260505020323 32 0 0.0 0.0 0.00 0.00 0.00 69 980.0
20260505015759 31 0 0.0 0.0 0.00 0.00 0.00 70 980.0
20260505015236 32 0 0.0 0.0 0.00 0.00 0.00 70 980.0
20260505014713 31 0 0.0 0.0 0.00 0.00 0.00 70 980.0
20260505014149 31 0 0.0 0.0 0.00 0.00 0.00 69 980.0
20260505013626 -17 0 0.0 0.0 0.00 0.00 0.00 69 980.0
20260505013058 31 0 0.0 0.0 0.00 0.00 0.00 70 980.0
20260505012546 31 0 0.0 0.0 0.00 0.00 0.00
20260505012536 31 0 0.0 0.0 0.00 0.00 0.00 71 980.0
20260505012022 31 0 0.0 0.0 0.00 0.00 0.00 72 980.0
20260505012012 31 0 0.0 0.0 0.00 0.00 0.00 72 980.0
20260505011447 31 0 0.0 0.0 0.00 0.00 0.00 75 980.0
20260505010925 31 0 0.0 0.0 0.00 0.00 0.00 77 980.0
20260505010358 30 0 0.0 0.0 0.00 0.00 0.00
20260505005835 29 0 0.0 0.0 0.00 0.00 0.00 83 98.0
20260505005311 29 0 0.0 0.0 0.00 0.00 0.00 84 980.0
20260505004744 28 0 0.0 0.0 0.00 0.00 0.00 86 980.0
20260505004219 28 0 0.0 0.0 0.00 0.00 0.00 89 980.0
20260505003649 27 0 0.0 0.0 0.00 0.00 0.00 92 980.0
20260505003133 27 0 0.0 0.0 0.00 0.00 0.00 93 980.0
20260505003125 27 0 0.0 0.0 0.00 0.00 0.00 93 980.0
20260505002553 27 0 0.0 0.0 0.00 0.00 0.00 92 980.0
20260505002031 27 0 0.0 0.0 0.00 0.00 0.00 96 980.0
20260505001505 27 0 0.0 0.0 0.00 0.00 0.00 95 980.0
20260505000942 26 0 0.0 0.0 0.00 0.00 0.00 98 980.0
20260505000420 27 0 0.0 0.0 0.00 0.00 0.00 94 979.0
20260505000417 27 0 0.0 0.0 0.00 0.00 0.00 94 979.0
20260504235852 27 0 0.0 0.0 0.00 0.00 0.00 93 979.0
20260504235323 27 0 0.0 0.0 0.00 0.00 0.00 92 979.0
20260504234800 27 0 0.0 0.0 0.00 0.00 0.00 92 979.0
20260504234237 27 0 0.0 0.0 0.00 0.00 0.00 90 979.0
20260504233713 26 0 0.0 0.0 0.00 0.00 0.00 96 979.0
20260504233150 27 0 0.0 0.0 0.00 0.00 0.00 91 979.0
20260504232626 27 0 0.0 0.0 0.00 0.00 0.00 90 979.0
20260504232059 27 0 0.0 0.0 0.00 0.00 0.00 93 979.0
20260504231536 26 0 0.0 0.0 0.00 0.00 0.00 95 978.0
20260504231010 -17 0 0.0 0.0 0.00 0.00 0.00
20260504230446 27 0 0.0 0.0 0.00 0.00 0.00 94 978.0
20260504225915 27 0 0.0 0.0 0.00 0.00 0.00 94 978.0
20260504225349 27 0 0.0 0.0 0.00 0.00 0.00 90 978.0
20260504224832 27 0 0.0 0.0 0.00 0.00 0.00 90 978.0
20260504224823 27 0 0.0 0.0 0.00 0.00 0.00 90 978.0
20260504224256 27 0 0.0 0.0 0.00 0.00 0.00 90
20260504223730 27 0 0.0 0.0 0.00 0.00 0.00 92 978.0
20260504223208 26 0 0.0 0.0 0.00 0.00 0.00 98 978.0
20260504222641 26 0 0.0 0.0 0.00 0.00 0.00 99 978.0
20260504222114 26 0 0.0 0.0 0.00 0.00 0.00 97 978.0
20260504221551 27 0 0.0 0.0 0.00 0.00 0.00 95 978.0
20260504221025 26 0 0.0 0.0 0.00 0.00 0.00 97 978.0
20260504220505 26 0 0.0 0.0 0.00 0.00 0.00 98 0.9
20260504220458 26 0 0.0 0.0 0.00 0.00 0.00 98 978.0
20260504215936 26 0 0.0 0.0 0.00 0.00 0.00 97 978.0
20260504215409 27 0 0.0 0.0 0.00 0.00 0.00 89 978.0
20260504214845 27 0 0.0 0.0 0.00 0.00 0.00 89 978.0
20260504214319 27 0 0.0 0.0 0.00 0.00 0.00 90 978.0
20260504213757 27 0 0.0 0.0 0.00 0.00 0.00 89 977.0
20260504213233 27 0 0.0 0.0 0.00 0.00 0.00 91 977.0
20260504212710 27 0 0.0 0.0 0.00 0.00 0.00 89 977.0
20260504212141 27 0 0.0 0.0 0.00 0.00 0.00 95 978.0
20260504211617 27 0 0.0 0.0 0.00 0.00 0.00 91 978.0
20260504211053 27 0 0.0 0.0 0.00 0.00 0.00 89 978.0
20260504210530 27 0 0.0 0.0 0.00 0.00 0.00 89 978.0
20260504210005 27 0 0.0 0.0 0.00 0.00 0.00 91 978.0
20260504205441 27 0 0.0 0.0 0.00 0.00 0.00 90 978.0
20260504204918 26 0 0.0 0.0 0.00 0.00 0.00 96 978.0
20260504204352 27 0 0.0 0.0 0.00 0.00 0.00 94 978.0
20260504203829 27 0 0.0 0.0 0.00 0.00 0.00 95 978.0
20260504203303 27 0 0.0 0.0 0.00 0.00 0.00 93 978.0
20260504202742 27 0 0.0 0.0 0.00 0.00 0.00 93 978.0
20260504202214 27 0 0.0 0.0 0.00 0.00 0.00 91 978.0
20260504201652 27 0 0.0 0.0 0.00 0.00 0.00 94 978.0
20260504201127 27 0 0.0 0.0 0.00 0.00 0.00 92 978.0
20260504200602 26 0 0.0 0.0 0.00 0.00 0.00 99 978.0
20260504200038 26 0 0.0 0.0 0.00 0.00 0.00 99 978.0
20260504195526 26 0 0.0 0.0 0.00 0.00 0.00 97 97.1
20260504195515 26 0 0.0 0.0 0.00 0.00 0.00 97 978.0
20260504194954 26 0 0.0 0.0 0.00 0.00 0.00 97 978.0
20260504194428 27 0 0.0 0.0 0.00 0.00 0.00 95 979.0
20260504193904 26 0 0.0 0.0 0.00 0.00 0.00 98 979.0
20260504193340 26 0 0.0 0.0 0.00 0.00 0.00 99 979.0
20260504192818 27 0 0.0 0.0 0.00 0.00 0.00 95 979.0
20260504192254 26 0 0.0 0.0 0.00 0.00 0.00 96 979.0
20260504191731 27 0 0.0 0.0 0.00 0.00 0.00 93 979.0
20260504191206 27 0 0.0 0.0 0.00 0.00 0.00 89 979.0
20260504190644 27 0 0.0 0.0 0.00 0.00 0.00 89 979.0
20260504190120 27 0 0.0 0.0 0.00 0.00 0.00 92 979.0
20260504185556 27 0 0.0 0.0 0.00 0.00 0.00 92 979.0
20260504185033 27 0 0.0 0.0 0.00 0.00 0.00 91 979.0
20260504184509 27 0 0.0 0.0 0.00 0.00 0.00 93 979.0
20260504183945 28 0 0.0 0.0 0.00 0.00 0.00 89 979.0
20260504183423 28 0 0.0 0.0 0.00 0.00 0.00 90 979.0
20260504182859 27 0 0.0 0.0 0.00 0.00 0.00 97 980.0
20260504182337 27 0 0.0 0.0 0.00 0.00 0.00 99 980.0
20260504181814 26 0 0.0 0.0 0.00 0.00 0.00 99 980.0
20260504181251 26 0 0.0 0.0 0.00 0.00 0.00 99 980.0
20260504180727 27 0 0.0 0.0 0.00 0.00 0.00 98 980.0
20260504180204 26 0 0.0 0.0 0.00 0.00 0.00 99 980.0
20260504175641 27 0 0.0 0.0 0.00 0.00 0.00 98 980.0
20260504175121 27 0 0.0 0.0 0.00 0.00 0.00 98 980.0
20260504174555 28 0 0.0 0.0 0.00 0.00 0.00 93 980.0
20260504174031 28 0 0.0 0.0 0.00 0.00 0.00 87 980.0
20260504173509 28 0 0.0 0.0 0.00 0.00 0.00 88 980.0
20260504172945 29 0 0.0 0.0 0.00 0.00 0.00 83 980.0
20260504172423 28 0 0.0 0.0 0.00 0.00 0.00 88 980.0
20260504171900 28 0 0.0 0.0 0.00 0.00 0.00 85 980.0
20260504171336 28 0 0.0 0.0 0.00 0.00 0.00 84 980.0
20260504170812 28 0 0.0 0.0 0.00 0.00 0.00 90 980.0
20260504170249 28 0 0.0 0.0 0.00 0.00 0.00 89 980.0
20260504160328 28 0 0.0 0.0 0.00 0.00 0.00 91 980.0
20260504150929 28 0 0.0 0.0 0.00 0.00 0.00 93 979.0
20260504150406 29 0 0.0 0.0 0.00 0.00 0.00 89 979.0
20260504141013 29 0 0.0 0.0 0.00 0.00 0.00 86 979.0
20260504140533 29 0 0.0 0.0 0.00 0.00 0.00 84 979.0
20260504140449 29 0 0.0 0.0 0.00 0.00 0.00 84 979.0
20260504140117 29 0 0.0 0.0 0.00 0.00 0.00 84 979.0
20260504140106 30 0 0.0 0.0 0.00 0.00 0.00 82 979.0
20260504130806 29 0 0.0 0.0 0.00 0.00 0.00 80 977.0
20260504130528 30 0 0.0 0.0 0.00 0.00 0.00 80 977.0
20260504110643 30 0 0.0 0.0 0.00 0.00 0.00 72 976.0
20260504110234 30 0 0.0 0.0 0.00 0.00 0.00 71 976.0
20260504110121 30 0 0.0 0.0 0.00 0.00 0.00 71 976.0
20260504100208 30 0 0.0 0.0 0.00 0.00 0.00 81 976.0
20260504081947 31 0 0.0 0.0 0.00 0.00 0.00 62 976.0
20260504081424 32 0 0.0 0.0 0.00 0.00 0.00 60 976.0
20260504080900 32 0 0.0 0.0 0.00 0.00 0.00 58 976.0
20260504080338 32 0 0.0 0.0 0.00 0.00 0.00 54 976.0
20260504050552 37 0 0.0 0.0 0.00 0.00 0.00 52 979.0
20260504045949 36 0 0.0 0.0 0.00 0.00 0.00 53 979.0
20260504045426 36 0 0.0 0.0 0.00 0.00 0.00 52 979.0
20260504044904 36 0 0.0 0.0 0.00 0.00 0.00 53 979.0
20260504044342 37 0 0.0 0.0 0.00 0.00 0.00 52 979.0
20260504043818 36 0 0.0 0.0 0.00 0.00 0.00 53 979.0
20260504043256 36 0 0.0 0.0 0.00 0.00 0.00 52 979.0
20260504042734 36 0 0.0 0.0 0.00 0.00 0.00 52 979.0
20260504042210 36 0 0.0 0.0 0.00 0.00 0.00 53 979.0
20260504041657 36 0 0.0 0.0 0.00 0.00 0.00 52 979.0
20260504041648 36 0 0.0 0.0 0.00 0.00 0.00 52 979.0
20260504041126 36 0 0.0 0.0 0.00 0.00 0.00 52 979.0
20260504040604 36 0 0.0 0.0 0.00 0.00 0.00 979.0
20260504040041 36 0 0.0 0.0 0.00 0.00 0.00 53 979.0
20260504035518 36 0 0.0 0.0 0.00 0.00 0.00 54 979.0
20260504034955 36 0 0.0 0.0 0.00 0.00 0.00 54 980.0
20260504034433 36 0 0.0 0.0 0.00 0.00 0.00 54 980.0
20260504033911 36 0 0.0 0.0 0.00 0.00 0.00 53 979.0
20260504033346 36 0 0.0 0.0 0.00 0.00 0.00 52 979.0
20260504032824 36 0 0.0 0.0 0.00 0.00 0.00 52 980.0